Regional Weather Roundup
Issued by NWS

Home | Current Version | Previous Version | Graphics & Text | Print | Product List | Glossary On
Versions: 1 2 3 4 5 6 7 8 9 10 11 12 13 14 15 16 17 18 19 20 21 22 23 24 25 26 27 28 29 30 31 32 33 34 35 36 37 38 39 40 41 42 43 44 45 46 47 48 49 50
642
ASUS43 KIND 241659
RWRIN

WEATHER ROUNDUP FOR INDIANA
NATIONAL WEATHER SERVICE INDIANAPOLIS IN
100 PM EDT MON APR 24 2017

NOTE: "FAIR" INDICATES FEW OR NO CLOUDS BELOW 12,000 FEET WITH NO
SIGNIFICANT WEATHER AND/OR OBSTRUCTIONS TO VISIBILITY.

* - STATION DOES NOT REPORT WEATHER SUCH AS PRECIPITATION OR FOG.

+ - STATION NOT QUALITY CONTROLLED BY THE NATIONAL WEATHER SERVICE.
    USE DATA WITH CAUTION...ESPECIALLY DEWPOINT AND RELATIVE
    HUMIDITY OBSERVATIONS.

INZ001>003-010>013-019-020-241800-
NORTHWEST INDIANA

CITY           SKY/WX    TMP DP  RH WIND       PRES   REMARKS
GARY /AIRPORT/ PTSUNNY   59  43  55 CALM      29.99F
KNOX *+        SUNNY    N/A N/A N/A E9G20     29.98F
LA PORTE +     SUNNY     68  28  21 E12       29.99F
MONTICELLO +   SUNNY     69  30  23 NE9       29.96F

$$

LMZ046-743>745-241800-
SOUTHERN LAKE MICHIGAN

STATION/POSITION TIME  TEMP    WIND        PRES    WAVE
                       AIR SEA DIR/SP/G            HT
                 (UTC) (F)     (DEG/KT/KT) (MB)    (FT)
BURNS HARBOR     1640   49      CALM  /  5 1016.3F
MICHIGAN CITY    1630   56      20/  5/  7   N/A

$$

INZ004-005-014>016-021>024-241800-
NORTH CENTRAL INDIANA

CITY           SKY/WX    TMP DP  RH WIND       PRES   REMARKS
ELKHART        SUNNY     68  27  21 E13       30.00F
GOSHEN         SUNNY     67  30  25 E12       29.99F
PERU/GRISSOM   SUNNY     69  32  25 E12G18    29.95F
SOUTH BEND     SUNNY     67  31  26 E13G20    30.00F
WARSAW +       SUNNY     68  32  26 E10       29.98F

$$

INZ006>009-017-018-025>027-241800-
NORTHEAST INDIANA

CITY           SKY/WX    TMP DP  RH WIND       PRES   REMARKS
ANGOLA *+      SUNNY     66  36  32 E9        30.01F
AUBURN +       SUNNY     66  36  32 E9G16     30.00F
FORT WAYNE     MOSUNNY   66  38  35 NE16      29.98F
HUNTINGTON +   SUNNY     67  36  31 NE13      29.97F
KENDALLVILLE + SUNNY     66  37  33 E10       30.00F

$$

INZ028-029-035-036-043>045-051>053-241800-
WEST CENTRAL INDIANA

CITY           SKY/WX    TMP DP  RH WIND       PRES   REMARKS
CRAWFORDSVL +  SUNNY     69  35  28 E13G21    29.94F
GREENCASTLE +  SUNNY     70  32  24 NE8       29.92F
LAFAYETTE      NOT AVBL
TERRE HAUTE    SUNNY     72  30  21 E16G22    29.91F

$$

INZ030>032-037>040-046>048-054>057-064-065-241800-
CENTRAL INDIANA

CITY           SKY/WX    TMP DP  RH WIND       PRES   REMARKS
CP ATTERBURY + SUNNY     70  36  28 NE10G18   29.92F
COLUMBUS       SUNNY     68  27  21 NE14      29.91F
FRANKFORT +    SUNNY     73  32  21 E13G21    29.96F
GREENWOOD *+   SUNNY     71  29  21 E12G18    29.92F
INDIANAPOLIS   MOSUNNY   71  36  27 NE13      29.92F
-EAGLE CREEK   SUNNY     70  33  25 NE10G17   29.92F
KOKOMO +       SUNNY     68  35  29 E17       29.96F
SHELBYVILLE    SUNNY     74  28  18 NE20      29.90F

$$

INZ033-034-041-042-049-050-058-059-241800-
EAST CENTRAL INDIANA

CITY           SKY/WX    TMP DP  RH WIND       PRES   REMARKS
MUNCIE         SUNNY     72  31  22 E16G25    29.94F
RICHMOND +     SUNNY     66  43  42 E14       29.93F

$$

INZ060-061-067>069-081>083-085>088-241800-
SOUTHWEST INDIANA

CITY           SKY/WX    TMP DP  RH WIND       PRES   REMARKS
EVANSVILLE     SUNNY     72  41  32 VRB7      29.88F

$$

INZ062-063-066-070>080-084-089>092-241800-
SOUTH CENTRAL AND SOUTHEAST INDIANA

CITY           SKY/WX    TMP DP  RH WIND       PRES   REMARKS
BLOOMINGTON    SUNNY     71  30  21 NE17G25   29.90F
MADISON *+     SUNNY     68  37  32 NE10      29.89F
SEYMOUR +      SUNNY     72  39  30 NE8       29.88F

$$





USA.gov is the U.S. government's official web portal to all federal, state and local government web resources and services.